Santa Ynez, CA

4:59 AM PDT on September 28, 2016 (GMT -0700)
Santa Ynez

Weather History for KIZA - July, 2013

Change the Weather History Date:

Tuesday, July 9, 2013

  Actual Average (KSBA) Record (KSBA)
Temperature  
Mean Temperature 74 °F 65 °F  
Max Temperature 96 °F 73 °F 84 °F (1959)
Min Temperature 51 °F 58 °F 47 °F (1944)
Degree Days  
Heating Degree Days 0 1  
Month to date heating degree days 9  
Since 1 June heating degree days 99  
Since 1 July heating degree days 9  
Cooling Degree Days 8 1  
Month to date cooling degree days 9  
Year to date cooling degree days 37  
Since 1 June cooling degree days 23  
Growing Degree Days 24 (Base 50)    
Moisture  
Dew Point 51 °F    
Average Humidity 62    
Maximum Humidity 100    
Minimum Humidity 17    
Precipitation  
Precipitation 0.00 in 0.00 in 0.91 in (1950)
Month to date precipitation 0.01  
Year to date precipitation 12.06  
Sea Level Pressure  
Sea Level Pressure 29.98 in    
Wind  
Wind Speed 5 mph (West)    
Max Wind Speed 16 mph    
Max Gust Speed 21 mph    
Visibility 8 miles    
Events Fog    
T = Trace of Precipitation, MM = Missing Value Source: NWS Daily Summary

Daily Weather History Graph

Daily Weather History Graph

Search for Another Location

Airport or City:

Trip Planner

Search our weather history database for the weather conditions in past years. The results will help you decide how hot, cold, wet, or windy it might be!

Date:

Astronomy

Jul. 09, 2013 Rise Set
Actual Time 5:55 AM PDT 8:15 PM PDT
Civil Twilight 5:26 AM PDT 8:44 PM PDT
Nautical Twilight 4:50 AM PDT 9:20 PM PDT
Astronomical Twilight 4:11 AM PDT 9:59 PM PDT
Moon 7:18 AM PDT (7/9) 9:02 PM PDT (7/9)
Length of Visible Light 15h 18m
Length of Day
14h 20m
New Moon, 2% of the Moon is Illuminated
Jul 9
New Moon
Jul 15
First Quarter
Jul 22
Full
Jul 29
Last Quarter
Aug 6
New

Hourly Weather History & Observations

Time (PDT) Temp. Dew Point Humidity Pressure Visibility Wind Dir Wind Speed Gust Speed Precip Events Conditions
12:15 AM 55.4 °F 51.8 °F 88% 29.98 in 10.0 mi WSW 4.6 mph - N/A   Clear
12:35 AM 55.4 °F 51.8 °F 88% 29.98 in 10.0 mi SW 4.6 mph - N/A   Clear
12:55 AM 53.6 °F 51.8 °F 94% 29.98 in 10.0 mi WSW 3.5 mph - N/A   Clear
1:15 AM 53.6 °F 51.8 °F 94% 29.98 in 10.0 mi WSW 4.6 mph - N/A   Clear
1:35 AM 53.6 °F 51.8 °F 94% 29.97 in 10.0 mi WSW 3.5 mph - N/A   Clear
1:55 AM 53.6 °F 51.8 °F 94% 29.97 in 10.0 mi WSW 3.5 mph - N/A   Clear
2:15 AM 53.6 °F 51.8 °F 94% 29.97 in 4.0 mi WSW 3.5 mph - N/A   Scattered Clouds
2:35 AM 53.6 °F 51.8 °F 94% 29.97 in 0.8 mi Calm Calm - N/A   Overcast
2:55 AM 53.6 °F 51.8 °F 94% 29.97 in 0.5 mi WSW 3.5 mph - N/A Fog Fog
3:15 AM 53.6 °F 51.8 °F 94% 29.97 in 0.5 mi Calm Calm - N/A Fog Fog
3:35 AM 53.6 °F 51.8 °F 94% 29.97 in 0.5 mi West 3.5 mph - N/A Fog Fog
3:55 AM 51.8 °F 51.8 °F 100% 29.97 in 0.5 mi Calm Calm - N/A Fog Fog
4:15 AM 51.8 °F 51.8 °F 100% 29.97 in 0.5 mi Calm Calm - N/A Fog Fog
4:35 AM 51.8 °F 51.8 °F 100% 29.97 in 0.2 mi Calm Calm - N/A Fog Fog
4:55 AM 51.8 °F 51.8 °F 100% 29.97 in 0.2 mi Calm Calm - N/A Fog Fog
5:15 AM 51.8 °F 51.8 °F 100% 29.97 in 0.2 mi Calm Calm - N/A Fog Fog
5:35 AM 51.8 °F 51.8 °F 100% 29.97 in 0.2 mi Calm Calm - N/A Fog Fog
5:55 AM 51.8 °F 51.8 °F 100% 29.98 in 0.5 mi Calm Calm - N/A Fog Fog
6:15 AM 51.8 °F 51.8 °F 100% 29.98 in 0.2 mi Calm Calm - N/A Fog Fog
6:35 AM 51.8 °F 51.8 °F 100% 29.98 in 0.2 mi SW 3.5 mph - N/A Fog Fog
6:55 AM 51.8 °F 51.8 °F 100% 29.98 in 0.2 mi Calm Calm - N/A Fog Fog
7:15 AM 51.8 °F 51.8 °F 100% 29.99 in 0.8 mi Calm Calm - N/A   Overcast
7:35 AM 51.8 °F 51.8 °F 100% 30.00 in 1.0 mi Calm Calm - N/A   Overcast
7:55 AM 53.6 °F 51.8 °F 94% 30.00 in 5.0 mi Calm Calm - N/A   Overcast
8:15 AM 55.4 °F 53.6 °F 94% 29.99 in 10.0 mi Calm Calm - N/A   Scattered Clouds
8:35 AM 59.0 °F 55.4 °F 88% 29.98 in 10.0 mi Calm Calm - N/A   Clear
8:55 AM 60.8 °F 55.4 °F 82% 29.98 in 10.0 mi Calm Calm - N/A   Clear
9:15 AM 64.4 °F 53.6 °F 68% 29.98 in 10.0 mi WSW 6.9 mph - N/A   Clear
9:35 AM 68.0 °F 51.8 °F 56% 29.98 in 10.0 mi West 5.8 mph - N/A   Clear
9:55 AM 71.6 °F 50.0 °F 46% 29.99 in 10.0 mi WNW 5.8 mph - N/A   Clear
10:15 AM 73.4 °F 50.0 °F 44% 29.99 in 10.0 mi WSW 5.8 mph - N/A   Clear
10:35 AM 77.0 °F 51.8 °F 41% 29.99 in 10.0 mi West 6.9 mph - N/A   Clear
10:55 AM 78.8 °F 50.0 °F 36% 30.00 in 10.0 mi West 9.2 mph - N/A   Clear
11:15 AM 80.6 °F 50.0 °F 34% 29.99 in 10.0 mi West 8.1 mph - N/A   Clear
11:35 AM 84.2 °F 50.0 °F 30% 29.98 in 10.0 mi West 5.8 mph - N/A   Clear
11:55 AM 87.8 °F 46.4 °F 24% 29.98 in 10.0 mi WNW 5.8 mph - N/A   Clear
12:15 PM 89.6 °F 48.2 °F 24% 29.98 in 10.0 mi WSW 9.2 mph - N/A   Clear
12:35 PM 91.4 °F 48.2 °F 23% 29.98 in 10.0 mi West 8.1 mph - N/A   Clear
12:55 PM 93.2 °F 48.2 °F 21% 29.97 in 10.0 mi WNW 10.4 mph - N/A   Clear
1:15 PM 95.0 °F 48.2 °F 20% 29.97 in 10.0 mi WNW 12.7 mph - N/A   Clear
1:35 PM 95.0 °F 50.0 °F 22% 29.97 in 10.0 mi WNW 11.5 mph - N/A   Clear
1:55 PM 96.8 °F 50.0 °F 20% 29.97 in 10.0 mi WNW 11.5 mph - N/A   Clear
2:15 PM 96.8 °F 44.6 °F 17% 29.97 in 10.0 mi WNW 13.8 mph - N/A   Clear
2:35 PM 96.8 °F 44.6 °F 17% 29.97 in 10.0 mi WNW 13.8 mph - N/A   Clear
2:55 PM 96.8 °F 46.4 °F 18% 29.96 in 10.0 mi West 13.8 mph - N/A   Clear
3:15 PM 95.0 °F 48.2 °F 20% 29.96 in 10.0 mi West 16.1 mph - N/A   Clear
3:35 PM 95.0 °F 46.4 °F 19% 29.96 in 10.0 mi WNW 16.1 mph - N/A   Clear
3:55 PM 91.4 °F 48.2 °F 23% 29.95 in 10.0 mi WNW 15.0 mph - N/A   Clear
4:15 PM 89.6 °F 46.4 °F 22% 29.95 in 10.0 mi WNW 13.8 mph - N/A   Clear
4:35 PM 87.8 °F 46.4 °F 24% 29.95 in 10.0 mi WNW 16.1 mph 20.7 mph N/A   Clear
4:55 PM 87.8 °F 46.4 °F 24% 29.95 in 10.0 mi WNW 13.8 mph - N/A   Clear
5:15 PM 86.0 °F 48.2 °F 27% 29.95 in 10.0 mi WNW 11.5 mph - N/A   Clear
5:35 PM 86.0 °F 50.0 °F 29% 29.95 in 10.0 mi West 10.4 mph - N/A   Clear
5:55 PM 84.2 °F 51.8 °F 33% 29.95 in 10.0 mi WSW 10.4 mph - N/A   Clear
6:15 PM 80.6 °F 51.8 °F 37% 29.96 in 10.0 mi West 11.5 mph - N/A   Clear
6:35 PM 78.8 °F 51.8 °F 39% 29.96 in 10.0 mi West 11.5 mph - N/A   Clear
6:55 PM 77.0 °F 51.8 °F 41% 29.96 in 10.0 mi West 8.1 mph - N/A   Clear
7:15 PM 75.2 °F 51.8 °F 44% 29.96 in 10.0 mi West 10.4 mph - N/A   Clear
7:35 PM 71.6 °F 53.6 °F 53% 29.97 in 10.0 mi West 10.4 mph - N/A   Clear
7:55 PM 69.8 °F 53.6 °F 56% 29.97 in 10.0 mi West 8.1 mph - N/A   Clear
8:15 PM 69.8 °F 53.6 °F 56% 29.98 in 10.0 mi WSW 6.9 mph - N/A   Clear
8:35 PM 68.0 °F 53.6 °F 60% 29.98 in 10.0 mi WSW 6.9 mph - N/A   Clear
8:55 PM 64.4 °F 53.6 °F 68% 29.98 in 10.0 mi WSW 6.9 mph - N/A   Clear
9:15 PM 64.4 °F 53.6 °F 68% 29.99 in 10.0 mi West 4.6 mph - N/A   Clear
9:35 PM 62.6 °F 53.6 °F 72% 30.00 in 10.0 mi WSW 5.8 mph - N/A   Clear
9:55 PM 62.6 °F 51.8 °F 68% 30.00 in 10.0 mi Calm Calm - N/A   Clear
10:15 PM 60.8 °F 51.8 °F 72% 30.00 in 10.0 mi Calm Calm - N/A   Clear
10:35 PM 60.8 °F 51.8 °F 72% 30.00 in 10.0 mi Calm Calm - N/A   Clear
10:55 PM 60.8 °F 51.8 °F 72% 30.00 in 10.0 mi Calm Calm - N/A   Clear
11:15 PM 60.8 °F 51.8 °F 72% 29.99 in 10.0 mi Calm Calm - N/A   Clear
11:35 PM 60.8 °F 51.8 °F 72% 29.99 in 10.0 mi Calm Calm - N/A   Clear
11:55 PM 59.0 °F 51.8 °F 77% 29.99 in 10.0 mi Calm Calm - N/A   Clear